Погода в Кашане

Иран     33°59′16″N   51°26′15″E
темп.,
°C
ветер,
м/с
пор.,
м/с
влажн.,
%
обл.,
%
осадки,
мм/ч
давл.,
гПа
погр.,
м
24 мая, вт
вт2401:30+30юз712100 0.0 998543
04:30+27з36130 0.0 999498
07:30+24с89150 0.0 1003467
10:30+26с65130 0.0 10041013
13:30+30ссв4580 0.0 10021583
16:30+33с6670 0.0 10002258
19:30+32с5660 0.0 10011096
22:30+28сз35100 0.0 1004472
25 мая, ср
ср2501:30+26сз35130 0.0 100587
04:30+24сз34160 0.0 100782
07:30+23ссз58200 0.0 1010542
10:30+27ссв23150 0.0 10101363
13:30+31ссв4590 0.0 10072365
16:30+34св6760 0.0 10053103
19:30+31св5680 0.0 1006916
22:30+28сз11120 0.0 1008177
26 мая, чт
чт2601:30+25ссз35150 0.0 1009136
04:30+22ссз12310 0.0 1012142
07:30+22св22320 0.0 1013277
10:30+24с32260 0.0 1013860
13:30+29св43190 0.0 10101714
16:30+31св32150 0.0 10072075
19:30+31с43150 0.0 10071931
22:30+26ссз79200 0.0 1011576
27 мая, пт
пт2701:30+23всв23250 0.0 1011148
04:30+20св23260 0.0 1013167
07:30+21св11230 0.0 1015417
10:30+24всв23200 0.0 10141074
13:30+29всв23200 0.0 10111992
16:30+32в55160 0.0 10072739
19:30+31вюв76160 0.1 10072430
22:30+28вюв69214 0.1 1010497
28 мая, сб
сб2801:30+26вюв36260 0.1 1010281
04:30+23всв23310 0.1 1011187
07:30+24вюв24260 0.0 1012513
10:30+27в24200 0.0 10121508
13:30+31всв34151 0.0 10092680
16:30+34в771150 0.0 10044045
19:30+32всв99122 0.0 10051962
22:30+29в6101694 0.0 1008627